EHI
25 26 28 29 34 40 41 41 45 51 55 54 50 47 40 33 30 30 32 32 31 33 35 33 33 32 29 24 19 13 6 1 1 1 1 0 0 1 1 1 0 0 0
19 23 27 31 36 40 40 41 46 49 50 50 47 41 33 24 18 18 18 19 19 22 26 28 26 25 23 19 16 13 7 3 2 1 0 0 0 0 0 0 0 0 0
15 19 25 30 36 41 40 40 43 44 44 43 39 30 22 14 9 6 5 5 6 9 14 16 16 15 14 12 10 9 6 4 2 0 0 0 0 0 0 0 0 0 0
16 18 21 26 31 34 35 36 37 37 36 35 29 21 15 11 7 4 2 1 0 2 5 6 7 7 6 4 4 4 3 2 1 0 0 0 0 0 0 0 0 0 0
13 14 15 18 21 23 26 29 30 28 27 27 22 15 11 8 5 3 1 0 0 0 1 1 2 2 1 1 1 1 1 0 0 0 0 0 0 0 0 0 0 0 0
7 8 9 9 10 13 17 21 21 20 19 18 14 10 7 5 3 1 0 0 0 0 0 0 0 0 0 0 0 0 0 0 0 0 0 0 0 0 0 0 0 0 0
3 3 3 3 3 5 8 11 12 12 11 10 7 4 3 3 2 1 0 0 0 0 0 0 0 0 0 0 0 0 0 0 0 0 0 0 0 0 0 0 0 0 0
1 1 1 1 0 1 2 3 4 4 4 3 2 1 1 1 1 0 0 0 0 0 0 0 0 0 0 0 0 0 0 0 0 0 0 0 0 0 0 0 0 0 0
0 0 0 0 0 0 0 0 0 0 1 1 0 0 0 0 0 0 0 0 0 0 0 0 0 0 0 0 0 0 0 0 0 0 0 0 0 0 0 0 0 0 0
0 0 0 0 0 0 0 0 0 0 0 0 0 0 0 0 0 0 0 0 0 0 0 0 0 0 0 0 0 0 0 0 0 0 0 0 0 0 0 0 0 0 0
0 0 0 0 0 0 0 0 0 0 0 0 0 0 0 0 0 0 0 0 0 0 0 0 0 0 0 0 0 0 0 0 0 0 0 0 0 0 0 0 0 0 0
0 0 0 0 0 0 0 0 0 0 0 0 0 0 0 0 0 0 0 0 0 0 0 0 0 0 0 0 0 0 0 0 0 0 0 0 0 0 0 0 0 0 0
0 0 0 0 0 0 0 0 0 0 0 0 0 0 0 0 0 0 0 0 0 0 0 0 0 0 0 0 0 0 0 0 0 0 0 0 0 0 0 0 0 0 0
0 0 0 0 0 0 0 0 0 0 0 0 0 0 0 0 0 0 0 0 0 0 0 0 0 0 0 0 0 0 0 0 0 0 0 0 0 0 0 0 0 0 0
0 0 0 0 0 0 0 0 0 0 0 0 0 0 0 0 0 0 0 0 0 0 0 0 0 0 0 0 0 0 0 0 0 0 0 0 0 0 0 0 0 0 0
0 0 0 0 0 0 0 0 0 0 0 0 0 0 0 0 0 0 0 0 0 0 0 0 0 0 0 0 0 0 0 0 0 0 0 0 0 0 0 0 0 0 0
0 0 0 0 0 0 0 0 0 0 0 0 0 0 0 0 0 0 0 0 0 0 0 0 0 0 0 0 0 0 0 0 0 0 0 0 0 0 0 0 0 0 0
0 0 0 0 0 0 0 0 0 0 0 0 0 0 0 0 0 0 0 0 0 0 0 0 0 0 0 0 0 0 0 0 0 0 0 0 0 0 0 0 0 0 0
0 0 0 0 0 0 0 0 0 0 0 0 0 0 0 0 0 0 0 0 0 0 0 0 0 0 0 0 0 0 0 0 0 0 0 0 0 0 0 0 0 0 0
0 0 0 0 0 0 0 0 0 0 0 0 0 0 0 0 0 0 0 0 0 0 0 0 0 0 0 0 0 0 0 0 0 0 0 0 0 0 0 0 0 0 0
0 0 0 0 0 0 0 0 0 0 0 0 0 0 0 0 0 0 0 0 0 0 0 0 0 0 0 0 0 0 0 0 0 0 0 0 0 0 0 0 0 0 0
0 0 0 0 0 0 0 0 0 0 0 0 0 0 0 0 0 0 0 0 0 0 0 0 0 0 0 0 0 0 0 0 0 0 0 0 0 0 0 0 0 0 0
0 0 0 0 0 0 0 0 0 0 0 0 0 0 0 0 0 0 0 0 0 0 0 0 0 0 0 0 0 0 0 0 0 0 0 0 0 0 0 0 0 0 0
0 0 0 0 0 0 0 0 0 0 0 0 0 0 0 0 0 0 0 0 0 0 0 0 0 0 0 0 0 0 0 0 0 0 0 0 0 0 0 0 0 0 0
0 0 0 0 0 0 0 0 0 0 0 0 0 0 0 0 0 0 0 0 0 0 0 0 0 0 0 0 0 0 0 0 0 0 0 0 0 0 0 0 0 0 0
0 0 0 0 0 0 0 0 0 0 0 0 0 0 0 0 0 0 0 0 0 0 0 0 0 0 0 0 0 0 0 0 0 0 0 0 0 0 0 0 0 0 0
Wind_Speed
5 5 4 3 4 4 6 8 8 8 7 6 5 5 5 5 4 3 3 3 4 5 4 4 4 3 3 3 3 3 4 3 2 2 3 3 3 4 3 3 4 5 6
6 6 6 4 4 4 4 5 7 7 8 6 5 3 4 4 4 4 4 4 3 3 3 4 3 3 3 4 3 3 3 2 1 2 3 3 3 3 4 4 5 5 5
7 7 7 6 5 4 3 2 3 5 5 6 5 5 4 4 4 4 4 5 5 6 5 5 4 3 3 4 3 2 3 3 2 1 2 2 2 3 4 5 5 5 4
8 8 8 8 7 5 4 3 3 3 4 6 6 7 5 4 4 4 5 7 8 7 7 7 6 5 4 5 4 3 1 1 2 1 2 3 2 1 3 4 5 6 5
9 9 9 9 9 8 6 5 4 5 4 4 6 6 6 6 6 7 9 8 8 9 9 8 7 7 6 7 7 6 5 3 2 2 1 1 1 0 1 2 3 3 4
9 9 9 9 10 9 8 7 6 6 6 6 6 7 10 10 10 9 9 7 6 8 10 9 8 8 7 8 8 8 9 7 7 4 3 2 1 1 1 2 2 2 3
8 9 10 10 10 11 10 9 9 9 8 10 10 10 11 12 11 10 9 8 7 7 9 8 8 8 8 9 9 9 9 8 8 6 5 5 4 3 2 1 2 2 3
9 9 10 10 10 10 10 10 11 11 11 11 11 11 11 10 9 10 9 9 7 8 9 9 9 9 9 9 8 8 8 8 8 8 7 5 5 4 4 2 0 2 3
9 9 10 10 10 10 11 11 12 12 12 13 13 13 13 12 12 11 11 9 8 8 10 10 10 9 9 9 8 8 8 7 7 8 7 6 5 5 5 4 3 3 1
9 9 9 10 10 10 11 12 12 13 13 13 12 12 13 13 12 12 12 12 11 10 10 10 10 10 9 8 7 8 8 8 8 7 8 6 6 5 4 4 4 4 4
9 8 8 9 10 10 11 11 12 13 13 13 13 14 13 13 13 12 12 11 10 9 9 9 9 9 9 8 8 8 8 8 8 7 8 8 7 5 4 4 4 4 4
9 9 9 9 10 11 11 11 12 13 13 13 14 14 13 13 13 12 11 10 9 9 9 9 9 8 8 7 8 8 8 7 8 7 7 7 5 5 5 4 5 5 4
9 9 9 10 10 10 11 11 12 13 13 14 14 14 13 13 12 11 10 10 10 9 8 8 8 8 8 7 7 7 7 7 7 7 7 6 6 5 5 5 4 3 3
10 10 10 10 10 10 11 12 12 12 12 13 13 13 12 12 11 10 10 9 9 9 8 8 8 8 7 7 6 6 6 6 6 6 6 6 6 6 5 3 3 4 3
11 11 10 10 10 11 11 12 12 11 11 12 12 12 11 11 10 10 10 9 9 9 9 9 8 8 8 7 6 5 6 5 5 5 5 7 6 6 6 6 6 6 5
12 11 11 11 11 11 11 11 11 10 10 11 12 11 10 10 10 10 9 9 9 9 9 9 9 9 9 8 10 7 5 4 4 4 4 4 3 2 3 3 5 6 7
12 12 11 11 11 11 11 10 10 10 10 11 11 11 10 10 9 9 9 9 9 9 8 8 9 10 9 8 8 9 4 4 4 4 3 3 4 3 5 3 8 8 9
13 12 11 12 11 11 10 10 10 10 10 10 10 10 10 10 9 9 8 8 7 7 7 7 8 8 9 7 7 9 2 4 4 4 4 4 5 7 8 8 5 3 0
13 12 11 12 11 11 11 10 10 10 10 10 9 9 9 9 8 8 7 7 6 6 6 6 6 7 8 8 8 12 1 3 3 3 5 6 5 7 8 8 6 5 3
12 12 12 12 11 11 10 10 10 9 10 10 9 8 8 7 7 7 6 6 5 5 5 6 6 6 7 7 8 12 3 3 2 3 4 6 6 8 9 8 7 7 7
13 12 12 11 11 11 10 9 10 9 9 9 9 8 7 7 7 6 5 4 5 5 5 5 5 5 6 6 6 10 6 5 4 3 3 6 6 6 7 8 6 7 8
13 12 11 11 10 10 10 10 10 9 9 8 8 7 6 6 6 5 5 4 4 4 4 4 4 4 5 5 5 4 5 7 5 5 5 6 6 5 5 5 6 9 10
13 11 12 11 9 9 9 10 9 9 8 8 7 7 6 5 5 4 4 4 2 2 3 3 3 4 4 5 4 2 2 4 4 4 5 4 5 7 4 1 5 8 5
13 12 12 11 9 8 8 8 8 8 8 8 7 6 5 5 5 3 3 3 3 3 3 3 4 4 4 5 4 2 2 5 3 1 3 8 8 6 3 3 3 4 5
12 11 11 10 10 9 9 9 8 7 7 7 6 5 5 5 4 5 6 6 8 8 6 5 4 4 6 7 7 7 7 8 7 8 4 2 2 3 4 4 4 4 4
11 11 11 11 11 10 9 8 8 7 6 6 5 4 4 4 4 5 6 7 7 5 5 6 6 5 6 4 4 4 4 5 8 8 3 4 5 5 5 5 5 5 5
Wind_Direction
58 58 78 113 131 147 164 171 177 172 165 165 172 176 174 167 147 136 134 166 171 165 173 175 164 175 168 166 159 152 153 163 160 168 152 123 93 76 71 61 60 58 52
66 59 64 77 107 128 148 167 175 174 174 171 166 165 148 139 129 120 100 99 111 123 144 140 142 147 141 146 146 160 175 156 200 233 201 186 163 111 74 76 69 60 56
64 57 57 61 71 84 106 136 151 164 158 150 139 130 119 108 109 103 88 71 78 86 92 104 111 116 130 127 131 173 187 170 140 336 281 243 204 135 109 79 71 66 63
64 60 56 52 51 56 67 81 101 108 125 142 151 151 146 131 105 98 87 71 63 69 74 78 80 79 84 92 91 65 81 140 147 110 16 8 14 199 140 113 86 71 61
60 57 52 51 48 45 52 58 73 88 98 117 136 141 128 110 104 97 90 78 68 66 69 71 76 77 75 76 77 75 69 62 71 85 85 83 79 331 203 139 126 102 72
64 59 58 55 49 46 49 55 68 69 75 87 94 109 113 112 111 103 97 85 75 68 66 69 70 74 77 78 79 78 75 73 69 63 52 44 51 54 81 134 146 124 95
68 60 55 53 50 48 49 55 66 65 66 74 78 87 100 104 104 102 96 91 82 73 67 69 70 72 76 76 76 76 75 75 75 71 68 60 52 41 31 105 132 130 125
72 64 57 54 52 51 52 57 65 66 67 72 75 79 86 88 87 87 89 84 79 78 79 75 74 73 74 76 77 79 78 77 77 72 67 67 55 44 36 31 31 177 151
78 70 63 58 55 55 54 60 69 71 71 74 76 74 79 86 91 91 88 86 85 86 82 81 80 77 75 76 79 80 80 80 80 81 75 68 66 53 49 40 8 333 307
84 74 68 64 62 63 64 65 69 73 74 75 78 81 80 84 88 88 87 88 87 86 86 86 86 84 81 79 80 83 78 78 72 67 64 57 64 59 54 46 38 14 355
93 84 76 73 72 71 71 72 74 77 78 80 82 84 84 85 85 85 85 85 85 86 88 89 87 85 82 79 79 84 86 83 82 79 76 66 47 46 51 50 45 36 18
99 92 86 81 78 76 76 76 78 81 85 87 87 88 89 89 88 86 86 86 85 84 83 85 86 88 88 86 86 87 85 83 80 76 72 69 68 58 41 34 41 43 17
108 100 92 86 82 82 82 83 84 87 90 92 92 91 89 89 88 87 86 85 84 82 81 84 86 87 89 87 84 85 84 80 76 72 69 65 58 50 48 24 29 27 26
114 107 100 95 93 92 91 91 91 93 95 95 95 94 92 91 91 91 89 86 86 87 86 85 85 86 85 85 87 86 84 81 78 71 66 56 45 34 21 24 23 3 338
121 115 110 107 103 99 97 97 97 99 101 102 100 99 100 100 98 96 93 91 89 89 88 89 87 83 75 55 51 84 84 80 80 77 69 64 50 31 0 355 357 347 337
129 123 118 115 111 108 106 105 105 108 109 107 105 105 105 103 101 100 97 94 89 86 85 83 81 74 65 37 17 2 77 72 69 67 69 107 125 105 216 265 300 317 324
136 133 129 123 119 117 118 118 120 121 118 114 113 114 113 107 104 101 97 94 92 89 86 84 82 80 66 37 20 357 359 67 57 46 31 26 54 329 354 242 224 235 236
140 136 132 127 126 129 128 125 125 123 119 116 114 113 110 107 105 102 99 99 96 94 91 86 84 84 69 35 12 334 316 63 58 43 28 14 16 28 347 326 329 336 280
138 134 133 132 134 135 134 131 128 124 120 117 116 114 113 112 110 105 103 101 101 100 99 90 85 85 82 38 6 331 34 77 71 54 41 5 13 37 340 312 335 352 356
132 133 136 137 139 139 138 134 128 123 117 113 111 110 109 106 102 100 101 101 101 101 97 88 80 76 74 53 11 338 340 61 65 92 113 87 19 358 336 325 346 353 353
134 139 142 141 140 141 139 133 125 117 114 114 112 108 105 102 98 97 98 105 101 93 87 92 93 82 67 87 37 1 348 9 11 32 50 70 32 355 335 317 340 345 316
141 145 141 138 140 144 142 132 122 119 119 117 113 109 103 97 98 99 97 91 97 120 115 107 109 106 101 60 61 17 4 335 347 12 25 49 11 338 329 342 353 314 294
144 144 140 138 141 146 141 129 127 129 127 122 115 111 102 88 89 100 110 114 120 101 97 98 98 96 99 124 173 206 262 300 328 24 29 341 306 286 240 220 301 298 313
144 145 144 141 138 138 130 127 133 135 133 129 123 116 110 107 97 88 84 76 65 69 80 75 75 85 88 52 36 26 172 209 233 281 189 222 246 261 293 279 284 326 354
148 149 145 142 140 137 134 135 139 142 140 136 129 121 111 99 101 78 47 41 54 34 15 38 44 42 59 44 8 345 1 356 5 327 308 320 341 338 358 353 354 341 342
147 147 145 143 141 140 139 139 143 145 145 144 143 135 124 121 125 128 118 62 58 74 51 27 5 54 53 23 360 347 330 316 313 304 332 2 355 354 355 349 347 348 355